Helicity
36 38 40 40 52 59 65 61 56 47 45 45 48 54 59 59 56 44 37 36 35 32 37 42 50 55 59 69 48 43 46 63 64 66 70 66 74 78 69 68 83 72 52 55 58 54 51
39 37 43 49 60 62 72 77 73 66 58 50 45 53 59 59 54 49 45 43 39 38 37 45 58 66 67 57 54 71 83 75 49 66 59 69 52 71 90 72 66 57 55 43 40 39 29
35 29 43 49 56 64 71 73 72 72 66 61 59 52 52 63 59 49 41 42 40 38 40 42 63 81 79 47 63 70 83 82 63 80 91 82 73 109 87 87 71 70 53 44 27 30 26
35 38 43 50 68 72 85 85 75 74 72 66 62 60 60 55 54 57 48 34 29 34 45 51 67 92 55 69 85 77 84 100 89 115 107 87 99 123 112 94 108 86 82 77 41 53 42
36 46 49 55 63 78 83 90 83 82 79 75 71 71 71 65 57 58 53 43 34 43 54 62 86 77 57 76 95 87 99 103 128 129 120 121 139 142 141 127 118 125 82 76 68 52 65
56 52 55 56 65 76 89 92 86 81 79 75 67 67 63 59 65 60 57 37 44 70 86 75 87 78 95 52 73 105 118 114 140 146 167 163 174 168 174 157 95 84 90 80 77 58 78
67 63 67 63 66 73 79 82 76 77 82 74 62 62 65 59 57 57 66 72 86 77 95 70 66 105 80 82 88 113 106 129 155 167 156 179 181 130 96 114 115 91 94 87 91 91 76
68 65 68 69 78 78 77 80 78 76 71 71 65 59 56 60 59 51 71 67 59 63 72 57 91 98 95 84 119 100 101 132 142 146 178 192 96 83 114 125 130 122 109 84 104 101 83
65 59 63 65 65 60 63 69 68 70 72 68 61 61 66 56 49 67 61 62 62 54 69 54 82 98 96 101 112 108 115 142 138 163 140 152 95 103 135 136 135 110 101 84 90 104 108
68 71 75 76 75 69 66 68 71 74 75 65 65 66 60 57 57 52 58 64 66 56 100 50 68 107 154 135 140 180 157 163 161 110 130 114 125 103 111 109 133 109 96 115 119 118 94
84 68 41 62 66 70 81 80 69 67 62 70 70 91 74 57 59 55 60 52 72 90 121 73 112 126 139 164 154 185 208 204 164 163 176 133 113 136 134 115 130 112 123 133 140 151 128
60 59 46 60 44 66 81 84 77 35 45 47 55 64 68 67 58 47 49 60 98 168 105 89 96 89 139 150 170 165 179 200 181 188 198 163 149 147 137 172 171 96 180 186 160 145 151
69 61 51 68 55 73 75 51 65 38 13 30 44 42 49 73 59 47 65 117 144 154 126 87 84 73 95 107 134 120 127 146 140 161 133 152 146 150 155 186 202 182 175 162 158 183 138
77 72 64 53 72 35 44 42 13 15 33 30 38 46 47 60 90 11 100 167 174 121 133 95 51 90 81 100 119 127 122 103 82 106 86 118 96 129 145 148 102 140 153 147 113 134 128
88 75 75 61 40 30 3 26 35 32 43 39 53 54 62 66 72 78 276 307 165 100 87 95 137 110 112 107 105 133 94 82 55 88 81 102 107 127 149 166 188 145 166 175 187 178 164
79 96 97 89 77 40 28 49 97 75 59 25 74 95 86 51 58 114 210 179 133 93 103 91 85 79 55 98 119 92 80 70 89 115 143 94 134 137 137 152 187 176 158 206 241 191 161
100 119 102 83 83 37 37 65 132 151 58 21 101 127 118 78 101 215 174 168 65 53 81 78 98 62 74 80 89 102 83 94 97 115 166 156 169 143 163 139 146 219 215 218 200 241 178
111 98 90 107 37 14 -2 28 35 125 -3 69 134 162 75 56 191 242 115 132 57 49 76 75 39 73 69 95 102 95 74 124 103 119 128 162 169 166 163 150 157 191 178 200 202 180 240
77 84 106 78 -65 -13 3 33 8 53 83 200 252 189 131 145 61 135 106 83 79 86 69 43 50 71 103 86 103 125 151 166 134 145 118 131 198 212 195 171 188 188 191 220 242 223 192
24 58 16 -54 -20 -12 -7 -2 -10 33 26 193 300 213 135 105 77 72 76 82 107 93 44 102 79 99 106 122 167 108 158 149 155 168 170 161 227 231 178 173 172 170 191 236 261 247 214
-12 -37 -17 4 13 -2 0 18 23 45 -4 58 191 231 173 81 104 81 84 75 79 65 97 98 104 96 104 117 158 149 178 186 183 187 237 207 195 190 189 195 186 153 144 132 177 205 188
-69 -77 -34 -17 -13 17 31 24 40 35 57 -26 42 91 120 127 86 69 117 70 59 121 107 90 120 81 101 123 118 79 164 173 180 208 229 230 177 183 174 178 193 156 145 132 144 167 170
-26 -7 2 11 12 32 33 43 45 45 -13 -25 -6 36 16 53 126 139 85 101 146 86 110 97 74 115 145 142 125 169 191 204 178 165 223 215 179 166 129 158 146 158 98 238 206 214 262
-24 -22 -17 -9 18 27 33 47 67 56 -3 -20 13 15 15 62 84 81 62 75 109 82 81 135 144 156 103 119 152 194 239 237 243 242 177 157 197 179 143 157 173 124 150 150 183 118 218
-1 15 22 21 21 19 20 27 47 49 15 -11 -13 9 22 8 28 27 44 52 82 103 95 89 108 100 81 129 124 117 135 134 163 208 219 213 213 206 181 171 142 151 114 113 133 113 150
-2 10 13 14 31 51 66 68 66 71 35 21 -6 -1 28 26 2 24 34 35 41 62 76 91 110 124 118 113 118 96 80 90 97 158 237 251 247 218 231 188 128 119 117 130 157 201 162
24 29 29 26 25 26 30 33 44 48 45 5 3 2 17 19 44 54 49 43 68 79 81 82 93 106 122 122 123 115 119 139 136 123 132 211 211 190 245 203 183 138 180 218 277 108 193
49 50 52 59 65 69 68 69 68 68 69 7 13 2 26 48 71 85 92 87 92 96 86 97 145 127 164 129 120 113 137 131 189 203 162 171 182 192 289 294 176 216 239 191 193 229 191
50 47 46 49 51 52 55 54 52 65 79 25 43 18 28 80 89 97 128 132 132 128 122 147 137 115 121 167 156 166 167 195 185 159 227 208 213 189 193 179 207 168 218 219 225 238 248
Wind_Speed
51 54 55 55 54 55 54 54 53 52 50 49 49 49 50 49 48 47 44 43 42 39 37 33 34 33 29 35 37 24 21 19 17 15 15 15 18 22 28 25 23 28 28 25 25 24 23
51 52 55 56 56 56 55 55 55 54 53 51 50 51 52 51 49 48 47 45 42 41 38 35 31 31 34 41 29 24 20 20 18 17 17 15 19 18 27 27 26 26 27 26 24 24 24
54 53 53 55 57 56 56 56 55 55 54 53 52 51 52 53 51 49 47 46 44 40 38 34 30 30 38 45 28 22 19 23 19 20 18 17 18 24 23 26 27 26 29 30 27 23 24
53 56 54 55 58 57 58 58 57 56 55 54 54 53 53 53 51 50 49 47 42 39 35 33 28 33 43 35 28 24 22 23 21 22 22 18 19 23 28 22 30 32 33 35 29 22 25
55 56 57 56 57 57 57 60 59 57 56 56 55 55 55 54 52 50 48 45 37 32 31 27 33 35 39 30 33 30 26 24 23 24 25 22 24 26 25 31 38 38 40 35 34 25 25
55 56 57 57 58 58 60 61 59 58 56 56 55 56 55 54 52 49 44 37 29 28 29 31 36 40 36 33 30 27 27 18 28 21 27 28 31 33 33 33 45 41 40 37 35 29 28
59 59 60 60 59 59 59 59 59 58 57 56 56 56 56 55 51 45 36 35 38 42 40 40 40 40 33 28 27 28 32 27 24 31 34 34 40 38 31 30 37 36 38 39 35 33 34
56 58 61 60 60 61 61 61 61 60 58 56 56 56 55 54 50 41 36 41 41 38 49 44 44 43 36 29 31 24 23 25 28 33 27 35 44 42 36 31 36 39 42 42 41 37 39
55 57 58 60 59 60 61 62 61 61 60 58 57 55 54 52 45 38 39 40 38 37 47 47 43 43 40 31 36 24 23 31 36 33 29 38 41 31 33 35 36 40 40 42 46 38 41
57 58 59 58 60 60 60 61 62 62 61 60 58 55 52 50 42 39 41 38 35 35 46 49 43 43 36 33 41 33 28 34 38 37 33 46 38 34 33 38 31 39 37 37 37 42 50
55 57 58 58 59 61 62 62 62 63 62 61 59 58 53 42 42 40 39 32 29 32 45 38 39 33 31 33 29 38 33 36 39 35 35 40 36 36 39 38 30 38 31 32 37 41 48
55 58 59 60 61 61 62 64 64 63 63 61 60 57 53 40 41 41 35 26 28 33 38 37 34 34 32 36 36 32 34 32 31 34 38 40 35 37 36 33 34 15 28 35 39 43 58
55 59 61 62 63 64 65 64 64 62 64 62 59 54 47 39 39 30 31 28 34 35 34 39 41 34 34 34 33 32 30 30 34 39 43 39 40 36 30 31 28 32 30 44 50 48 56
57 58 60 62 64 65 64 66 66 66 65 62 57 49 37 37 37 29 29 38 38 42 42 34 29 27 37 31 36 33 30 32 34 31 30 31 41 32 34 36 35 30 36 40 52 50 50
59 60 62 63 64 66 67 67 67 67 64 59 49 35 33 34 31 39 36 51 53 48 37 34 36 42 47 41 37 36 38 37 32 25 36 34 41 34 34 34 33 37 43 36 45 48 57
58 61 62 64 66 67 68 67 68 64 58 50 32 30 33 28 28 34 38 60 58 42 40 35 41 35 42 36 35 33 33 36 37 33 36 38 46 39 35 33 37 37 26 42 44 54 57
60 64 64 63 67 70 68 67 67 58 47 36 31 36 28 23 29 40 56 58 54 44 41 39 39 40 42 35 32 37 40 39 33 30 33 35 43 43 37 40 38 36 40 38 36 42 50
62 63 63 64 66 71 69 64 64 52 32 23 34 22 24 27 46 52 66 50 42 44 42 44 39 39 37 33 36 42 42 43 32 29 37 35 39 46 46 40 37 40 40 35 48 51 48
66 67 63 62 66 70 72 68 58 54 32 35 39 28 30 31 45 59 48 41 46 47 43 38 39 38 37 37 44 42 39 39 32 34 34 30 41 46 49 47 44 46 43 41 41 43 46
65 67 63 60 67 69 68 64 62 52 31 31 38 42 34 38 42 41 48 52 46 40 42 38 38 33 35 39 40 38 39 38 36 37 35 31 41 49 58 51 38 43 41 38 41 50 50
66 66 64 63 63 63 64 63 61 47 25 20 33 36 37 33 41 46 41 39 33 40 38 34 40 36 35 40 40 42 37 35 39 34 38 39 52 46 46 44 44 44 39 34 38 43 49
64 64 67 63 63 63 62 60 56 44 27 30 32 31 37 40 39 36 38 41 44 43 37 40 40 33 31 40 40 38 36 41 46 38 37 39 46 43 53 48 50 55 45 38 40 44 48
66 65 65 64 64 65 61 59 54 46 32 33 33 33 34 45 46 46 46 42 40 31 38 36 31 32 37 42 39 39 38 37 35 36 35 37 37 42 53 45 49 61 42 37 42 44 44
66 66 64 66 65 66 66 64 62 52 44 37 35 31 34 42 38 38 41 33 33 34 39 41 39 42 36 18 23 31 31 30 30 32 30 29 29 37 48 44 67 53 41 39 42 45 37
65 65 65 64 65 66 65 64 63 60 53 45 40 35 33 39 37 37 33 33 30 33 35 34 36 31 10 29 34 36 40 40 39 37 36 35 33 43 49 52 64 53 44 40 41 53 33
67 67 68 68 67 67 65 65 65 63 58 45 48 40 37 41 38 37 32 30 33 32 32 32 29 22 25 31 35 42 45 40 41 40 38 36 38 45 49 61 69 54 44 37 40 70 36
69 68 69 69 70 69 69 68 68 64 61 46 47 47 40 44 39 38 39 38 33 34 35 31 28 29 34 38 43 45 48 41 46 45 42 40 45 50 55 66 69 52 41 38 63 72 35
71 71 72 71 71 71 70 70 69 67 65 51 45 51 45 44 43 41 39 40 40 38 41 32 32 39 38 42 44 48 49 44 49 45 48 48 48 56 54 68 86 41 41 55 51 42 35
71 72 72 74 75 75 75 73 72 71 68 56 47 51 47 41 39 38 36 38 39 39 38 31 41 39 32 39 43 43 50 46 51 65 47 59 52 57 50 58 48 43 49 46 45 41 41
Wind_Direction
344 339 332 331 332 329 327 326 325 327 329 331 326 318 313 310 303 300 303 301 301 305 304 309 308 313 317 301 298 327 340 351 354 356 339 342 330 327 319 328 330 315 320 326 333 336 342
342 339 333 332 329 327 324 324 323 323 324 326 328 320 312 310 307 302 299 301 302 302 301 302 309 309 302 290 315 324 335 337 340 336 332 343 333 341 327 325 319 325 316 323 331 333 340
336 336 335 332 328 327 321 321 321 321 323 324 324 321 315 309 305 303 300 301 299 302 300 303 306 304 295 287 319 329 333 321 330 328 330 335 341 321 328 325 324 320 311 312 319 328 335
336 333 335 335 326 325 317 315 318 318 320 321 320 319 315 310 307 303 300 300 302 302 304 303 307 300 290 301 308 314 321 326 332 334 332 337 338 324 315 333 319 306 306 298 313 322 325
333 332 333 330 327 324 320 311 315 318 319 320 320 316 312 309 305 304 301 302 307 309 308 306 299 295 295 307 295 298 308 309 320 322 324 323 316 312 313 302 298 297 290 293 303 314 319
333 334 330 327 324 321 315 311 318 318 319 320 319 316 311 308 305 302 302 307 315 316 309 304 296 291 292 295 297 301 310 320 306 312 308 307 302 293 295 289 286 287 287 291 295 306 304
325 328 324 322 323 323 322 319 318 319 319 318 317 313 310 308 306 303 304 302 299 296 288 285 289 286 296 299 306 305 292 297 310 297 289 291 285 282 281 287 294 295 290 290 295 299 299
327 327 323 324 322 320 318 317 316 315 316 317 315 312 308 307 305 302 299 294 294 300 291 284 285 284 291 296 298 303 304 297 295 289 297 293 284 284 293 288 289 288 286 286 290 296 295
329 328 325 323 324 322 320 317 315 313 312 312 312 310 307 303 306 303 294 293 300 300 291 287 282 279 282 286 289 289 291 292 291 288 286 286 293 299 287 287 285 285 284 285 286 295 297
328 327 326 325 323 322 321 318 315 313 310 307 307 306 305 301 303 302 295 294 297 299 293 284 281 279 280 286 286 292 289 293 289 286 287 284 292 292 291 286 288 284 290 290 291 291 288
333 331 329 326 324 322 319 318 315 313 309 306 302 297 296 303 300 296 299 297 297 294 291 288 280 293 288 282 293 288 292 289 285 288 286 286 289 285 285 289 292 291 299 296 295 291 293
337 333 330 326 324 321 318 316 313 311 308 303 297 293 287 296 293 292 292 299 289 284 282 287 287 283 282 283 291 294 289 298 295 290 290 287 296 291 290 295 293 306 303 302 299 295 286
344 337 332 327 323 317 314 313 310 296 303 297 295 295 289 290 293 298 286 282 277 271 290 283 281 284 283 284 287 290 285 281 281 280 278 285 284 291 296 293 296 293 292 291 290 288 288
346 342 336 332 328 320 316 304 297 301 299 297 297 299 301 292 285 287 286 267 267 282 271 288 295 295 281 286 285 284 286 282 280 285 295 278 284 282 290 288 290 285 287 288 289 290 294
346 341 336 332 329 323 314 306 300 297 302 306 305 309 305 297 284 271 273 262 264 270 282 280 284 284 279 282 286 279 278 282 283 272 283 287 286 295 296 294 292 288 283 294 293 297 294
352 345 336 331 325 320 313 305 304 299 305 312 311 308 301 303 283 272 265 261 262 277 278 283 280 288 280 278 276 276 277 287 282 282 285 289 288 294 297 298 297 292 299 290 290 290 290
352 343 343 334 331 326 322 316 306 307 317 317 303 294 303 310 286 269 259 260 266 276 279 284 287 285 281 282 277 279 284 286 286 290 288 290 288 292 294 287 286 288 287 294 297 294 293
355 344 335 341 336 332 327 318 317 318 339 343 295 310 305 306 278 262 246 264 276 277 279 283 290 286 282 283 282 278 280 286 291 292 288 290 295 288 289 298 296 290 288 285 287 290 295
2 347 343 351 342 332 330 322 323 334 309 308 289 317 306 284 271 251 265 278 280 280 281 287 287 288 290 284 282 282 285 292 293 290 292 288 291 290 292 293 293 287 286 288 292 295 290
15 9 358 353 350 340 334 338 329 318 330 295 284 278 295 278 277 272 269 273 279 285 285 288 289 293 291 285 287 287 287 292 291 290 296 294 291 288 285 293 301 291 286 285 286 288 291
19 15 357 351 344 340 342 338 332 325 347 319 295 289 296 310 283 278 282 288 294 286 288 290 290 287 289 287 286 286 290 291 293 295 295 294 287 289 291 294 295 295 294 287 281 289 290
21 4 359 350 347 343 341 341 336 328 338 319 315 298 298 295 292 288 288 288 285 289 289 287 289 294 292 289 291 293 290 289 288 292 292 293 289 291 289 294 295 291 292 290 289 290 290
12 360 357 354 353 351 347 345 341 335 306 332 325 321 287 281 279 283 287 289 294 300 296 300 302 297 294 295 302 304 300 299 296 291 286 290 291 292 290 298 298 292 287 280 288 290 290
6 2 358 357 354 354 352 350 349 345 345 344 347 349 308 300 305 304 300 311 305 301 300 295 297 295 299 328 329 317 316 313 307 303 301 295 295 298 296 301 290 302 307 303 291 295 287
3 360 356 353 353 353 350 348 348 349 354 7 351 353 345 325 324 316 315 315 317 312 304 305 305 310 328 305 302 300 299 299 299 304 300 301 296 297 295 292 298 300 302 302 300 301 290
8 4 359 358 354 351 347 346 347 345 348 4 355 350 344 330 324 328 328 322 316 312 310 309 313 312 306 305 301 295 294 299 300 302 302 300 299 293 296 294 294 305 309 311 311 296 300
2 360 358 357 354 353 351 350 347 343 340 358 353 348 342 324 327 324 315 312 312 308 308 310 305 301 300 298 296 296 295 300 294 294 297 298 297 289 291 293 297 303 310 313 296 303 308
2 1 359 356 350 347 344 343 341 340 338 353 352 348 342 331 327 323 320 311 308 305 302 308 305 298 297 294 297 299 297 297 297 298 297 294 293 294 296 293 293 305 306 299 309 317 313
360 359 357 354 351 348 344 343 342 340 336 349 351 344 343 342 336 337 334 324 317 312 309 304 303 307 304 304 301 304 299 301 298 294 299 294 295 298 292 299 309 306 308 309 311 308 308